Wind_Speed
6 7 8 9 10 10 11 14 16 17 19 21 25 30 34 31 32 32 33 31 28 25 28 29 32 31 30 31 28 27 27 28 35 47 44 38 27 27 26 28 30 38 39
11 11 12 11 12 13 15 16 16 17 19 22 21 20 20 22 24 27 29 28 26 24 25 27 29 32 35 33 28 25 27 35 41 44 46 41 33 29 31 32 37 40 40
9 10 12 14 15 16 16 15 15 14 15 16 18 21 21 22 23 25 22 21 19 24 23 32 37 39 35 34 34 38 39 41 42 44 47 41 35 34 38 41 42 38 35
6 7 11 14 16 16 16 16 16 15 14 15 16 15 16 17 20 20 20 21 21 23 27 31 33 39 39 37 42 41 40 41 45 46 47 44 39 37 40 46 42 37 30
7 10 12 14 15 15 15 14 16 16 16 14 15 15 17 20 21 22 20 22 24 26 28 28 25 28 34 34 37 44 47 41 45 47 46 44 42 39 42 48 49 42 34
7 9 13 14 12 14 16 16 15 14 14 16 15 15 18 18 21 23 24 23 23 24 24 25 27 31 33 34 30 32 40 37 44 44 40 43 45 48 50 54 45 37 26
8 11 11 12 11 14 13 14 15 14 14 15 16 17 17 17 17 19 21 20 21 22 22 23 23 23 24 26 28 27 27 29 31 35 33 39 45 49 53 53 52 46 39
9 9 10 12 12 13 13 12 13 13 17 16 16 15 15 16 18 17 15 15 16 17 18 18 17 18 18 19 20 21 21 21 22 20 19 21 22 24 24 24 24 19 18
10 9 10 10 11 12 11 14 14 16 15 16 16 16 16 17 17 19 20 18 17 18 18 18 18 18 17 16 16 14 13 11 10 8 4 2 1 3 8 12 16 15 17
9 9 8 9 9 8 10 12 13 14 16 16 15 15 15 18 20 20 21 20 19 19 18 18 17 17 18 17 16 15 15 15 16 16 16 16 17 19 17 7 6 17 19
5 5 7 9 7 10 10 10 11 12 13 14 12 12 12 16 20 22 20 18 18 19 20 19 18 16 16 16 16 15 15 13 12 11 8 5 4 4 9 9 13 10 11
6 8 10 10 10 11 11 11 12 14 15 16 17 16 16 15 17 18 19 19 19 19 19 19 19 18 17 15 15 15 14 12 10 9 8 7 7 7 7 9 10 11 11
8 10 9 8 8 11 13 13 15 16 16 17 19 21 21 21 20 20 20 20 19 20 19 19 16 16 18 19 17 15 14 14 11 10 8 8 7 7 6 7 9 11 14
10 8 8 10 11 13 13 15 17 18 21 21 21 22 22 23 23 23 24 24 23 21 20 18 17 15 14 17 16 13 12 12 12 11 9 7 7 8 8 9 11 11 11
10 9 8 10 11 11 14 15 15 17 20 24 22 23 23 25 25 25 25 25 24 24 20 16 13 15 17 16 14 14 12 11 11 9 7 6 7 7 8 9 11 12 12
8 11 16 15 17 18 19 21 17 15 18 15 18 22 23 20 22 25 23 22 21 20 18 17 17 17 17 17 15 14 12 9 7 6 6 8 9 10 10 11 12 13 11
13 12 11 15 17 20 20 22 25 24 24 22 17 18 17 17 21 25 21 21 20 19 19 20 19 18 17 15 13 13 11 9 9 8 7 8 9 9 10 11 12 11 9
8 9 14 16 16 18 19 19 21 23 26 26 23 21 25 29 28 27 24 20 22 21 20 19 20 17 15 13 12 11 9 9 9 9 8 8 8 7 9 11 12 9 7
11 15 19 17 16 15 17 19 20 23 24 24 27 23 23 20 21 24 23 23 19 20 21 19 19 16 14 12 11 9 10 10 10 10 8 6 6 7 9 11 11 7 7
12 15 17 15 18 20 20 20 21 23 23 24 24 26 29 32 30 27 25 24 26 22 20 18 16 16 12 11 9 9 9 8 8 7 6 5 3 5 7 10 10 9 10
14 14 15 18 19 20 20 21 21 22 23 23 24 25 28 28 25 25 25 27 29 28 21 19 16 13 11 9 8 7 8 7 7 6 6 3 2 4 7 8 7 8 10
15 15 16 16 17 18 19 18 20 21 21 23 25 26 28 28 26 23 22 23 23 19 20 17 12 9 5 5 6 7 7 7 7 7 5 4 2 4 6 7 8 11 11
15 15 14 16 17 18 19 19 20 21 21 22 24 26 28 28 27 24 24 22 20 21 17 9 3 2 4 5 6 6 7 8 8 7 5 3 1 5 7 8 10 14 11
14 14 15 16 18 19 19 20 20 22 21 23 24 25 26 28 26 25 24 23 18 17 15 12 6 4 4 5 5 5 7 8 8 6 5 3 2 5 7 8 9 15 13
15 16 17 17 18 20 21 21 21 23 22 23 24 24 26 27 27 24 23 23 21 19 16 14 10 7 6 6 7 8 8 8 7 5 5 3 3 4 7 8 9 13 14
15 16 16 17 18 20 20 21 22 23 23 23 23 23 24 27 27 25 23 22 21 22 18 17 13 10 9 9 9 8 8 7 7 5 4 3 3 4 6 9 9 11 14
Wind_Direction
59 43 33 24 15 359 340 320 306 295 287 287 283 281 282 282 274 275 278 275 275 269 266 267 268 274 277 273 274 275 277 283 279 284 274 274 269 257 249 241 226 230 236
82 68 57 44 34 21 12 4 354 339 314 300 296 301 294 290 287 283 277 274 269 270 276 279 281 291 285 271 264 257 289 287 276 276 277 275 257 244 239 229 225 229 236
56 43 33 18 8 2 352 349 349 351 346 338 314 303 304 306 302 295 300 291 280 284 286 298 291 292 285 273 259 267 271 279 274 274 272 269 265 240 232 221 225 228 233
43 19 15 11 1 356 348 342 337 340 339 345 337 328 324 319 305 299 294 285 281 285 295 290 276 279 279 270 266 267 272 277 272 273 268 261 251 236 226 223 217 220 218
30 10 11 12 359 348 342 338 335 335 339 341 336 336 317 318 320 321 316 307 301 294 288 285 289 293 290 290 286 285 280 277 269 267 255 249 244 232 225 226 224 223 221
46 27 7 13 5 352 350 346 336 339 338 331 331 329 330 334 324 322 317 316 314 308 301 291 288 286 281 281 282 279 272 274 263 254 249 246 242 237 229 222 218 214 212
50 29 11 11 8 356 356 346 342 357 326 329 330 330 334 337 330 323 323 331 329 329 326 321 313 308 305 298 290 283 279 277 276 261 261 251 244 240 235 223 222 224 220
45 37 10 10 8 355 6 340 346 330 332 341 345 353 357 5 13 16 2 4 1 359 358 355 350 345 341 334 328 320 307 299 292 287 270 255 239 226 204 200 204 223 230
45 27 17 11 9 357 356 343 337 334 356 6 12 21 20 10 2 5 7 10 10 6 3 357 353 350 354 351 347 345 333 314 302 303 306 218 196 205 230 263 246 224 215
43 28 13 14 5 355 339 348 4 10 14 21 20 18 8 359 347 349 354 353 354 354 356 354 356 353 347 343 342 331 319 314 307 298 291 285 278 273 276 202 217 222 227
39 17 353 358 359 348 6 5 359 2 354 349 348 348 344 339 342 347 349 347 345 343 341 342 345 349 349 352 351 346 342 336 330 325 320 312 290 247 208 244 244 250 233
7 2 8 13 11 1 359 356 347 344 343 340 339 338 337 331 332 336 339 339 337 334 333 334 335 336 337 343 343 342 334 327 324 322 311 304 295 280 263 240 250 254 250
15 24 11 349 351 351 348 348 347 347 348 346 346 343 342 344 344 340 336 331 328 323 320 318 314 318 318 327 331 328 325 316 306 304 301 290 280 287 277 261 248 247 241
34 32 352 1 11 1 358 360 358 359 353 351 348 345 345 344 346 343 345 345 339 334 330 329 328 325 317 311 313 319 319 315 306 296 296 284 283 274 271 263 259 241 233
29 6 13 4 11 350 352 353 359 352 343 339 337 338 339 338 342 339 338 337 336 337 336 327 325 318 318 324 321 322 322 313 303 297 279 273 289 281 263 259 245 237 239
17 20 350 359 356 352 348 342 348 342 329 344 359 356 350 339 338 331 328 329 332 335 340 334 327 323 326 327 327 326 328 323 324 319 285 276 284 286 268 250 232 229 238
17 6 346 343 346 345 342 339 335 338 340 341 330 328 336 322 336 337 329 331 337 336 341 337 330 328 325 324 321 324 327 326 320 313 310 298 289 278 261 234 220 222 238
1 324 333 350 358 353 352 342 337 337 334 332 342 342 327 323 325 322 331 333 338 341 338 332 329 327 327 323 323 321 318 320 318 317 310 287 287 265 243 222 214 225 229
16 2 10 19 4 354 346 343 341 341 344 346 340 329 334 333 331 331 329 337 326 326 332 330 329 322 323 323 325 321 319 316 316 315 312 292 266 254 232 220 214 215 200
28 12 19 4 349 350 356 358 354 352 349 349 349 347 338 337 340 339 334 325 320 320 323 330 324 319 316 316 323 323 327 325 321 321 326 309 252 230 216 208 209 202 193
22 20 18 4 10 8 7 8 2 357 355 352 349 341 338 340 335 331 327 323 322 318 321 323 322 314 311 309 321 336 332 341 340 329 335 316 238 211 199 200 205 185 188
33 32 24 15 12 12 8 6 359 354 354 351 348 349 352 351 348 343 339 337 337 342 327 321 318 311 324 331 335 342 347 347 352 345 341 340 242 194 194 196 190 185 179
36 31 23 18 13 13 8 6 1 357 356 353 350 352 353 350 351 347 339 329 340 10 355 349 333 276 302 324 335 336 339 350 349 345 337 327 275 195 190 198 190 183 186
37 31 27 21 18 16 11 8 4 360 2 357 355 357 355 353 354 355 357 355 354 355 360 356 5 9 343 336 336 341 337 332 328 333 333 305 264 202 193 194 190 188 188
38 32 31 24 22 18 14 14 7 5 5 3 360 1 356 359 3 5 9 9 13 1 356 353 360 356 339 338 331 323 320 318 318 313 317 279 249 214 194 191 189 184 184
41 39 35 29 29 23 20 17 14 12 11 7 3 6 2 6 9 9 13 14 17 12 9 10 7 356 351 345 342 339 328 319 319 311 302 280 220 207 194 184 185 183 184
Height
1452 1452 1453 1452 1452 1452 1452 1450 1448 1446 1445 1443 1440 1438 1437 1437 1435 1433 1430 1430 1429 1429 1430 1432 1432 1432 1432 1432 1432 1431 1431 1432 1429 1426 1428 1427 1424 1424 1425 1427 1429 1431 1434
1451 1451 1450 1451 1450 1449 1449 1448 1446 1443 1441 1439 1435 1433 1431 1429 1427 1426 1425 1423 1422 1422 1424 1426 1427 1426 1425 1425 1421 1421 1421 1422 1420 1417 1416 1416 1416 1416 1418 1420 1421 1423 1424
1448 1448 1449 1449 1447 1446 1446 1446 1444 1441 1438 1436 1432 1428 1427 1425 1422 1421 1419 1414 1414 1416 1415 1416 1420 1418 1414 1415 1410 1411 1409 1408 1408 1406 1402 1402 1404 1406 1409 1411 1412 1415 1416
1446 1447 1447 1447 1445 1444 1444 1443 1441 1439 1436 1433 1430 1426 1423 1422 1420 1417 1414 1412 1410 1409 1408 1408 1404 1405 1404 1402 1400 1399 1399 1396 1393 1394 1391 1391 1393 1395 1400 1405 1402 1403 1410
1445 1445 1445 1444 1443 1444 1443 1441 1439 1437 1434 1432 1427 1424 1419 1418 1416 1414 1412 1410 1407 1404 1403 1401 1400 1398 1396 1394 1392 1389 1387 1383 1381 1381 1378 1380 1382 1388 1387 1391 1394 1394 1397
1443 1444 1443 1443 1443 1443 1441 1439 1438 1436 1433 1429 1426 1421 1420 1414 1413 1411 1408 1404 1401 1399 1396 1395 1393 1390 1388 1386 1384 1382 1382 1377 1374 1374 1372 1372 1372 1374 1374 1375 1381 1386 1389
1443 1441 1443 1443 1442 1442 1438 1438 1436 1434 1429 1426 1423 1420 1416 1413 1409 1405 1407 1400 1397 1394 1390 1388 1386 1384 1381 1378 1376 1374 1372 1371 1368 1367 1366 1365 1362 1362 1361 1362 1367 1372 1375
1440 1442 1442 1441 1441 1439 1438 1437 1434 1430 1427 1423 1420 1417 1415 1412 1410 1408 1405 1399 1396 1393 1389 1386 1383 1379 1376 1373 1371 1369 1367 1365 1363 1361 1360 1360 1357 1361 1360 1360 1363 1373 1375
1440 1440 1439 1440 1438 1438 1437 1435 1431 1427 1424 1421 1420 1417 1416 1413 1410 1408 1403 1398 1394 1392 1389 1386 1383 1379 1376 1374 1371 1368 1366 1365 1364 1363 1361 1361 1360 1363 1362 1366 1368 1370 1371
1438 1438 1439 1438 1436 1437 1435 1433 1431 1427 1425 1423 1422 1419 1416 1412 1409 1407 1403 1399 1395 1391 1388 1386 1382 1380 1377 1374 1370 1368 1366 1365 1364 1363 1362 1361 1361 1361 1362 1364 1363 1366 1372
1436 1437 1436 1435 1436 1435 1433 1431 1430 1427 1425 1424 1421 1419 1416 1413 1409 1406 1401 1398 1395 1391 1388 1384 1381 1378 1376 1373 1370 1368 1366 1364 1362 1361 1359 1358 1359 1361 1363 1364 1366 1368 1369
1435 1434 1434 1435 1435 1433 1431 1430 1428 1425 1423 1421 1418 1415 1413 1411 1408 1405 1401 1397 1393 1390 1386 1383 1380 1378 1374 1373 1370 1368 1365 1363 1361 1361 1359 1360 1360 1362 1362 1364 1365 1367 1369
1434 1434 1436 1435 1434 1432 1430 1428 1426 1424 1420 1418 1415 1412 1409 1406 1403 1400 1397 1394 1391 1387 1384 1381 1378 1376 1373 1371 1369 1366 1364 1362 1360 1359 1359 1359 1359 1361 1361 1363 1364 1366 1368
1435 1436 1437 1434 1433 1431 1430 1427 1425 1422 1419 1416 1414 1410 1407 1403 1400 1396 1393 1390 1387 1383 1380 1378 1375 1373 1371 1369 1366 1364 1361 1359 1358 1358 1357 1357 1358 1359 1361 1362 1363 1365 1366
1438 1437 1437 1434 1432 1431 1430 1427 1425 1422 1419 1416 1413 1410 1406 1402 1399 1396 1392 1389 1385 1382 1378 1376 1374 1372 1368 1365 1363 1361 1359 1357 1356 1355 1355 1356 1356 1357 1358 1359 1361 1362 1364
1440 1439 1436 1434 1432 1430 1428 1425 1423 1421 1418 1416 1414 1411 1407 1403 1399 1395 1391 1388 1385 1380 1377 1373 1371 1368 1365 1363 1361 1359 1357 1356 1355 1354 1353 1354 1354 1355 1355 1356 1358 1360 1362
1441 1439 1436 1435 1432 1430 1427 1424 1421 1418 1415 1414 1411 1407 1405 1401 1397 1394 1389 1385 1382 1378 1375 1372 1369 1366 1363 1361 1359 1357 1355 1354 1353 1353 1352 1352 1352 1352 1352 1353 1356 1358 1359
1440 1437 1434 1432 1432 1430 1427 1425 1421 1417 1412 1410 1408 1406 1403 1398 1394 1391 1387 1382 1379 1376 1373 1370 1366 1363 1361 1358 1357 1355 1354 1352 1352 1351 1350 1349 1349 1349 1350 1352 1354 1357 1358
1439 1436 1434 1433 1432 1428 1426 1423 1420 1416 1412 1409 1405 1403 1399 1393 1391 1387 1384 1381 1377 1374 1371 1367 1364 1361 1359 1357 1355 1354 1353 1351 1350 1349 1347 1346 1346 1347 1348 1351 1354 1356 1357
1439 1437 1435 1432 1430 1427 1424 1422 1419 1415 1412 1409 1405 1401 1395 1391 1387 1384 1381 1378 1374 1371 1367 1363 1361 1359 1357 1356 1354 1353 1351 1350 1348 1347 1346 1345 1345 1346 1347 1350 1353 1354 1357
1438 1437 1435 1431 1429 1427 1426 1423 1420 1416 1413 1410 1406 1401 1396 1391 1386 1382 1378 1375 1371 1367 1363 1360 1357 1356 1355 1354 1353 1352 1350 1349 1347 1346 1345 1344 1344 1345 1347 1350 1352 1354 1357
1439 1437 1434 1433 1432 1429 1427 1424 1420 1417 1414 1410 1406 1401 1395 1390 1385 1381 1377 1373 1369 1363 1360 1357 1355 1354 1353 1352 1351 1350 1349 1348 1346 1345 1344 1344 1344 1345 1347 1350 1351 1354 1356
1440 1437 1437 1435 1433 1430 1428 1425 1421 1418 1415 1411 1407 1401 1396 1391 1385 1380 1375 1370 1367 1361 1358 1355 1353 1353 1352 1351 1350 1349 1348 1347 1346 1345 1344 1344 1344 1345 1347 1349 1352 1354 1357
1441 1440 1438 1436 1434 1432 1429 1426 1423 1419 1416 1412 1407 1402 1397 1391 1385 1380 1375 1370 1366 1362 1358 1355 1353 1351 1351 1350 1349 1348 1348 1347 1345 1345 1344 1344 1345 1345 1347 1349 1351 1354 1357
1443 1441 1439 1437 1436 1433 1431 1428 1424 1421 1417 1412 1408 1403 1398 1392 1386 1381 1376 1371 1367 1363 1359 1355 1353 1351 1350 1349 1348 1347 1346 1345 1344 1344 1344 1344 1344 1345 1346 1349 1351 1353 1357
1444 1443 1442 1440 1438 1435 1433 1430 1426 1422 1418 1414 1409 1405 1400 1394 1389 1383 1378 1373 1369 1365 1360 1356 1353 1351 1349 1348 1347 1346 1345 1344 1343 1343 1343 1343 1343 1344 1346 1348 1350 1353 1356